Back to catalog

THOR ABLESTAR DEB

AliveLEO
NORAD 416·DEBRIS·🇺🇸 United States

Launched Jun 29, 1961 from Cape Canaveral Space Force Station

Loading…

Next Passes (next 24 hours)

TLE

FreshSource: Space-Track

Epoch: Sep 8, 2026, 20:08 UTC

1 00416U 61015ER  26251.83895211  .00000231  00000-0  15949-3 0  9994
2 00416  66.4979  60.7882 0069915 118.2883 242.5284 14.14809143343682

Track THOR ABLESTAR DEB in real time with AllMySat

Download on the App Store